Flag for Germany Weather past 2 weeks in Bad Oldesloe, Schleswig-Holstein, Germany

Now
77 °F

Passing clouds.


Feels Like: 79 °F
Forecast: 59 / 81 °F
Wind: 16 mph from Northeast

Location: Luebeck-Blankensee

Current Time: Jul 23, 2014 at 3:32:59 PM

Latest Report: Jul 23, 2014 at 2:50 PM


Visibility: N/A

Pressure: 30.15 "Hg

Humidity: 57%

Dew point: 61 °F

Location of Bad OldesloeLocation

Historic Weather in Bad Oldesloe — Graph

°F

Bad Oldesloe temperature yesterday

Maximum temperature yesterday: 79 °F (at 5:20 PM)
Minimum temperature yesterday: 66 °F (at 6:50 AM)
Average temperature yesterday: 74 °F

Past Weeks' High & Low Weather Summary

 TemperatureHumidityPressure
High88 °F (Jul 19, 1:50 PM)100% (Jul 13, 7:50 PM)30.21 "Hg (Jul 13, 7:50 PM)
Low57 °F (Jul 12, 6:20 AM)38% (Jul 19, 2:50 PM)29.62 "Hg (Jul 9, 3:50 PM)
Average72 °F69%29.95 "Hg
* Reported Jul 8 2:20 PM — Jul 23 2:20 PM, Bad Oldesloe, Weather by CustomWeather, © 2014

Note: Actual official high and low records may vary slightly from our data, if they occured in-between our weather recording intervals... More about our weather records

Advertising

Bad Oldesloe weather history for previous 24 hours

 ConditionsComfort  
Time TempWeatherWind HumidityBarometerVisibility
2:20 PM
Jul 23
77 °FPassing clouds.15 mph61%30.15 "HgN/A
1:20 PM77 °FPassing clouds.15 mph57%30.15 "HgN/A
12:20 PM77 °FSunny.18 mph57%30.18 "Hg10 mi
11:50 AM77 °FSunny.15 mph57%30.18 "Hg10 mi
11:20 AM75 °FPassing clouds.16 mph57%30.18 "HgN/A
10:20 AM73 °FSunny.14 mph61%30.18 "Hg10 mi
7:50 AM68 °FSunny.10 mph83%30.18 "Hg10 mi
7:20 AM66 °FSunny.8 mph83%30.18 "Hg10 mi
6:50 AM66 °FSunny.7 mph83%30.18 "Hg10 mi
6:50 PM
Jul 22
77 °FPassing clouds.15 mph61%30.12 "HgN/A
6:20 PM77 °FSunny.16 mph61%30.12 "Hg10 mi
5:50 PM79 °FSunny.15 mph58%30.12 "Hg10 mi
5:20 PM79 °FSunny.14 mph61%30.12 "Hg10 mi
4:50 PM77 °FSunny.17 mph65%30.09 "Hg10 mi
4:20 PM77 °FSunny.17 mph61%30.09 "Hg10 mi
3:20 PM77 °FSunny.18 mph61%30.12 "Hg10 mi
Weather by CustomWeather, © 2014

See weather overviewHow to use our weather pages